Pampa, TX

7:14 PM CST on February 10, 2016 (GMT -0600)
Perry Lefors

Weather History for KPPA - May, 2013

Change the Weather History Date:

Friday, May 31, 2013

  Actual Average Record
Temperature  
Mean Temperature 71 °F -  
Max Temperature 89 °F 80 °F 98 °F (1974)
Min Temperature 53 °F 55 °F 45 °F (1975)
Cooling Degree Days 6    
Growing Degree Days 21 (Base 50)    
Moisture  
Dew Point 43 °F    
Average Humidity 39    
Maximum Humidity 84    
Minimum Humidity 15    
Precipitation  
Precipitation 0.00 in - - ()
Sea Level Pressure  
Sea Level Pressure 29.78 in    
Wind  
Wind Speed 10 mph (NNE)    
Max Wind Speed 31 mph    
Max Gust Speed 47 mph    
Visibility 10 miles    
Events      
Averages and records for this station are not official NWS values.
T = Trace of Precipitation, MM = Missing Value Source: NWS Daily Summary

Daily Weather History Graph

Daily Weather History Graph

Search for Another Location

Airport or City:

Trip Planner

Search our weather history database for the weather conditions in past years. The results will help you decide how hot, cold, wet, or windy it might be!

Date:

Astronomy

May. 31, 2013 Rise Set
Actual Time 6:29 AM CDT 8:53 PM CDT
Civil Twilight 6:00 AM CDT 9:23 PM CDT
Nautical Twilight 5:24 AM CDT 9:59 PM CDT
Astronomical Twilight 4:44 AM CDT 10:39 PM CDT
Moon 1:39 AM CDT (5/31) 1:36 PM CDT (5/31)
Length of Visible Light 15h 22m
Length of Day
14h 24m
Waning Gibbous, 51% of the Moon is Illuminated
May 31
Waning Gibbous
May 31
Last Quarter
Jun 8
New
Jun 16
First Quarter
Jun 23
Full

Hourly Weather History & Observations

Time (CDT) Temp. Dew Point Humidity Pressure Visibility Wind Dir Wind Speed Gust Speed Precip Events Conditions
12:15 AM 72.7 °F 31.1 °F 22% 29.70 in 10.0 mi WSW 13.8 mph - N/A   Clear
12:35 AM 69.8 °F 32.0 °F 25% 29.72 in 10.0 mi West 10.4 mph - N/A   Clear
12:55 AM 69.1 °F 31.1 °F 24% 29.73 in 10.0 mi WNW 10.4 mph - N/A   Clear
1:15 AM 65.1 °F 31.8 °F 29% 29.74 in 10.0 mi WNW 11.5 mph - N/A   Clear
1:35 AM 64.9 °F 29.5 °F 26% 29.74 in 10.0 mi NW 8.1 mph 17.3 mph N/A   Clear
1:55 AM 62.8 °F 30.6 °F 30% 29.75 in 10.0 mi NNW 10.4 mph - N/A   Clear
2:15 AM 61.7 °F 33.8 °F 35% 29.76 in 10.0 mi NW 8.1 mph - N/A   Clear
2:35 AM 62.1 °F 35.6 °F 37% 29.77 in 10.0 mi WNW 4.6 mph - N/A   Clear
2:55 AM 58.5 °F 37.9 °F 46% 29.78 in 10.0 mi West 6.9 mph - N/A   Clear
3:15 AM 55.6 °F 38.8 °F 53% 29.78 in 10.0 mi West 5.8 mph - N/A   Clear
3:35 AM 58.1 °F 37.4 °F 46% 29.78 in 10.0 mi WNW 5.8 mph - N/A   Clear
3:55 AM 57.6 °F 37.8 °F 48% 29.78 in 10.0 mi WNW 4.6 mph - N/A   Clear
4:15 AM 58.3 °F 39.9 °F 50% 29.77 in 10.0 mi NW 8.1 mph - N/A   Clear
4:35 AM 55.8 °F 43.7 °F 64% 29.77 in 10.0 mi NW 8.1 mph - N/A   Clear
4:55 AM 55.8 °F 43.9 °F 64% 29.78 in 10.0 mi WNW 6.9 mph - N/A   Clear
5:15 AM 56.1 °F 45.0 °F 66% 29.78 in 10.0 mi NW 6.9 mph - N/A   Clear
5:35 AM 54.1 °F 46.0 °F 74% 29.78 in 10.0 mi NW 8.1 mph - N/A   Clear
5:55 AM 53.6 °F 47.3 °F 79% 29.78 in 10.0 mi NW 8.1 mph - N/A   Clear
6:15 AM 54.1 °F 48.7 °F 82% 29.78 in 10.0 mi NW 6.9 mph - N/A   Clear
6:35 AM 53.6 °F 48.4 °F 82% 29.79 in 10.0 mi NW 8.1 mph - N/A   Clear
6:55 AM 53.2 °F 48.4 °F 84% 29.79 in 10.0 mi NW 8.1 mph - N/A   Clear
7:15 AM 54.1 °F 48.4 °F 81% 29.80 in 10.0 mi WNW 5.8 mph - N/A   Clear
7:35 AM 56.1 °F 49.3 °F 78% 29.82 in 10.0 mi WNW 5.8 mph - N/A   Clear
7:55 AM 58.6 °F 51.1 °F 76% 29.83 in 10.0 mi WNW 3.5 mph - N/A   Clear
8:15 AM 60.8 °F 52.5 °F 74% 29.84 in 10.0 mi NW 6.9 mph - N/A   Clear
8:35 AM 63.0 °F 53.4 °F 71% 29.84 in 10.0 mi NNW 6.9 mph - N/A   Clear
8:55 AM 66.7 °F 54.3 °F 64% 29.85 in 10.0 mi North 9.2 mph - N/A   Clear
9:15 AM 67.6 °F 53.6 °F 61% 29.85 in 10.0 mi North 10.4 mph - N/A   Clear
9:35 AM 68.7 °F 53.4 °F 58% 29.86 in 10.0 mi North 10.4 mph - N/A   Clear
9:55 AM 70.7 °F 53.4 °F 54% 29.85 in 10.0 mi North 8.1 mph - N/A   Clear
10:15 AM 72.5 °F 52.2 °F 49% 29.85 in 10.0 mi North 10.4 mph - N/A   Clear
10:35 AM 74.7 °F 49.5 °F 41% 29.85 in 10.0 mi NNE 9.2 mph - N/A   Clear
10:55 AM 76.6 °F 45.7 °F 33% 29.85 in 10.0 mi NE 9.2 mph - N/A   Clear
11:15 AM 79.0 °F 40.8 °F 26% 29.85 in 10.0 mi East 8.1 mph - N/A   Clear
11:35 AM 80.2 °F 40.8 °F 25% 29.84 in 10.0 mi ENE 9.2 mph - N/A   Clear
11:55 AM 81.1 °F 40.5 °F 23% 29.84 in 10.0 mi NE 9.2 mph - N/A   Clear
12:15 PM 82.2 °F 38.1 °F 21% 29.84 in 10.0 mi ENE 9.2 mph - N/A   Clear
12:35 PM 82.9 °F 36.9 °F 19% 29.84 in 10.0 mi East 8.1 mph - N/A   Clear
12:55 PM 83.3 °F 36.1 °F 19% 29.84 in 10.0 mi East 8.1 mph - N/A   Clear
1:15 PM 84.2 °F 35.6 °F 18% 29.84 in 10.0 mi Calm Calm - N/A   Clear
1:35 PM 85.1 °F 36.0 °F 17% 29.83 in 10.0 mi SSE 8.1 mph - N/A   Clear
1:55 PM 86.2 °F 35.6 °F 16% 29.82 in 10.0 mi SSW 5.8 mph - N/A   Clear
2:15 PM 85.1 °F 37.2 °F 18% 29.81 in 10.0 mi SSE 9.2 mph - N/A   Clear
2:35 PM 86.4 °F 39.4 °F 19% 29.80 in 10.0 mi SE 6.9 mph - N/A   Clear
2:55 PM 86.0 °F 39.2 °F 19% 29.80 in 10.0 mi SE 5.8 mph - N/A   Clear
3:15 PM 86.9 °F 38.3 °F 18% 29.79 in 10.0 mi ESE 10.4 mph - N/A   Clear
3:35 PM 87.6 °F 36.5 °F 16% 29.78 in 10.0 mi South 10.4 mph 17.3 mph N/A   Clear
3:55 PM 88.3 °F 35.8 °F 15% 29.78 in 10.0 mi South 9.2 mph - N/A   Clear
4:15 PM 88.3 °F 35.2 °F 15% 29.77 in 10.0 mi South 5.8 mph - N/A   Clear
4:35 PM 88.7 °F 35.8 °F 15% 29.76 in 10.0 mi SSW 6.9 mph - N/A   Clear
4:55 PM 89.2 °F 37.6 °F 16% 29.76 in 10.0 mi SSW 4.6 mph - N/A   Clear
5:15 PM 89.2 °F 37.0 °F 16% 29.75 in 10.0 mi Calm Calm - N/A   Clear
5:35 PM 89.2 °F 37.4 °F 16% 29.73 in 10.0 mi South 4.6 mph - N/A   Clear
5:55 PM 89.4 °F 39.4 °F 17% 29.72 in 10.0 mi SSE 9.2 mph - N/A   Clear
6:15 PM 88.7 °F 40.5 °F 18% 29.71 in 10.0 mi SSE 6.9 mph - N/A   Clear
6:35 PM 88.7 °F 40.5 °F 18% 29.69 in 10.0 mi SSE 10.4 mph - N/A   Clear
6:55 PM 88.0 °F 40.6 °F 19% 29.69 in 10.0 mi SE 9.2 mph - N/A   Clear
7:15 PM 87.1 °F 41.4 °F 20% 29.68 in 10.0 mi SE 10.4 mph - N/A   Clear
7:35 PM 86.0 °F 42.8 °F 22% 29.68 in 10.0 mi SE 9.2 mph - N/A   Clear
7:55 PM 84.4 °F 43.5 °F 24% 29.67 in 10.0 mi SE 8.1 mph - N/A   Clear
8:15 PM 82.4 °F 44.8 °F 27% 29.67 in 10.0 mi ESE 8.1 mph - N/A   Clear
8:35 PM 79.7 °F 46.0 °F 30% 29.67 in 10.0 mi ESE 9.2 mph - N/A   Clear
8:55 PM 78.3 °F 46.4 °F 32% 29.68 in 10.0 mi ESE 10.4 mph - N/A   Clear
9:15 PM 77.0 °F 49.1 °F 37% 29.68 in 10.0 mi ESE 11.5 mph - N/A   Clear
9:35 PM 77.0 °F 49.5 °F 38% 29.69 in 10.0 mi ESE 12.7 mph - N/A   Clear
9:55 PM 75.6 °F 52.7 °F 45% 29.72 in 10.0 mi East 20.7 mph 25.3 mph N/A   Clear
10:15 PM 74.3 °F 53.8 °F 49% 29.76 in 10.0 mi ENE 20.7 mph 36.8 mph N/A   Clear
10:35 PM 72.5 °F 50.4 °F 46% 29.78 in 10.0 mi ENE 27.6 mph 35.7 mph N/A   Clear
10:55 PM 70.9 °F 51.1 °F 49% 29.81 in 10.0 mi ENE 29.9 mph 47.2 mph N/A   Clear
11:15 PM 70.2 °F 47.8 °F 45% 29.82 in 10.0 mi ENE 31.1 mph 41.4 mph N/A   Clear
11:35 PM 69.3 °F 50.7 °F 52% 29.86 in 10.0 mi ENE 28.8 mph 35.7 mph N/A   Clear
11:55 PM 68.4 °F 50.7 °F 53% 29.88 in 10.0 mi NE 17.3 mph 27.6 mph N/A   Clear